Year,Month,Day,Hour,Minute,Value (Times are PST for temperature in C)
2013,02,22,00,00,5.10
2013,02,22,00,01,5.10
2013,02,22,00,03,5.10
2013,02,22,00,04,5.10
2013,02,22,00,05,5.10
2013,02,22,00,06,5.10
2013,02,22,00,07,5.10
2013,02,22,00,09,5.10
2013,02,22,00,10,5.10
2013,02,22,00,12,5.10
2013,02,22,00,13,5.10
2013,02,22,00,14,5.10
2013,02,22,00,15,5.10
2013,02,22,00,17,5.20
2013,02,22,00,18,5.20
2013,02,22,00,20,5.20
2013,02,22,00,21,5.20
2013,02,22,00,23,5.20
2013,02,22,00,25,5.20
2013,02,22,00,26,5.20
2013,02,22,00,28,5.20
2013,02,22,00,29,5.20
2013,02,22,00,31,5.20
2013,02,22,00,32,5.10
2013,02,22,00,33,5.10
2013,02,22,00,35,5.20
2013,02,22,00,36,5.10
2013,02,22,00,37,5.10
2013,02,22,00,39,5.10
2013,02,22,00,40,5.10
2013,02,22,00,43,5.20
2013,02,22,00,44,5.20
2013,02,22,00,45,5.20
2013,02,22,00,47,5.10
2013,02,22,00,48,5.10
2013,02,22,00,49,5.10
2013,02,22,00,51,5.10
2013,02,22,00,52,5.10
2013,02,22,00,53,5.10
2013,02,22,00,55,5.10
2013,02,22,00,56,5.10
2013,02,22,00,57,5.10
2013,02,22,00,58,5.10
2013,02,22,01,00,5.10
2013,02,22,01,01,5.10
2013,02,22,01,02,5.10
2013,02,22,01,03,5.10
2013,02,22,01,04,5.10
2013,02,22,01,05,5.10
2013,02,22,01,06,5.10
2013,02,22,01,08,5.10
2013,02,22,01,09,5.10
2013,02,22,01,11,5.10
2013,02,22,01,12,5.10
2013,02,22,01,14,5.10
2013,02,22,01,15,5.10
2013,02,22,01,17,5.10
2013,02,22,01,18,5.00
2013,02,22,01,19,5.00
2013,02,22,01,20,5.00
2013,02,22,01,22,5.00
2013,02,22,01,23,5.00
2013,02,22,01,24,5.00
2013,02,22,01,25,5.00
2013,02,22,01,26,5.00
2013,02,22,01,27,5.00
2013,02,22,01,28,5.00
2013,02,22,01,30,5.00
2013,02,22,01,31,5.00
2013,02,22,01,32,5.00
2013,02,22,01,34,4.90
2013,02,22,01,35,5.00
2013,02,22,01,37,4.90
2013,02,22,01,39,4.90
2013,02,22,01,40,4.90
2013,02,22,01,42,4.90
2013,02,22,01,43,4.90
2013,02,22,01,44,4.90
2013,02,22,01,46,4.90
2013,02,22,01,47,4.90
2013,02,22,01,48,4.90
2013,02,22,01,49,4.90
2013,02,22,01,51,4.90
2013,02,22,01,52,4.90
2013,02,22,01,53,4.90
2013,02,22,01,55,4.90
2013,02,22,01,56,4.90
2013,02,22,01,57,4.90
2013,02,22,01,59,4.80
2013,02,22,02,00,4.80
2013,02,22,02,01,4.80
2013,02,22,02,02,4.80
2013,02,22,02,03,4.80
2013,02,22,02,04,4.80
2013,02,22,02,06,4.80
2013,02,22,02,07,4.80
2013,02,22,02,08,4.80
2013,02,22,02,10,4.80
2013,02,22,02,11,4.70
2013,02,22,02,13,4.70
2013,02,22,02,14,4.70
2013,02,22,02,16,4.70
2013,02,22,02,17,4.70
2013,02,22,02,18,4.70
2013,02,22,02,20,4.70
2013,02,22,02,21,4.60
2013,02,22,02,22,4.60
2013,02,22,02,23,4.60
2013,02,22,02,24,4.60
2013,02,22,02,26,4.60
2013,02,22,02,27,4.60
2013,02,22,02,28,4.60
2013,02,22,02,30,4.60
2013,02,22,02,32,4.60
2013,02,22,02,33,4.60
2013,02,22,02,34,4.60
2013,02,22,02,35,4.60
2013,02,22,02,36,4.60
2013,02,22,02,37,4.60
2013,02,22,02,38,4.60
2013,02,22,02,39,4.60
2013,02,22,02,41,4.60
2013,02,22,02,42,4.60
2013,02,22,02,44,4.60
2013,02,22,02,46,4.60
2013,02,22,02,47,4.50
2013,02,22,02,49,4.50
2013,02,22,02,50,4.50
2013,02,22,02,51,4.40
2013,02,22,02,53,4.40
2013,02,22,02,54,4.40
2013,02,22,02,55,4.40
2013,02,22,02,57,4.40
2013,02,22,02,58,4.40
2013,02,22,03,00,4.40
2013,02,22,03,01,4.40
2013,02,22,03,02,4.40
2013,02,22,03,04,4.40
2013,02,22,03,05,4.40
2013,02,22,03,06,4.40
2013,02,22,03,08,4.40
2013,02,22,03,09,4.40
2013,02,22,03,10,4.40
2013,02,22,03,12,4.40
2013,02,22,03,13,4.40
2013,02,22,03,14,4.40
2013,02,22,03,16,4.40
2013,02,22,03,17,4.40
2013,02,22,03,18,4.40
2013,02,22,03,19,4.40
2013,02,22,03,20,4.40
2013,02,22,03,21,4.40
2013,02,22,03,22,4.40
2013,02,22,03,23,4.40
2013,02,22,03,24,4.40
2013,02,22,03,25,4.40
2013,02,22,03,26,4.30
2013,02,22,03,27,4.30
2013,02,22,03,28,4.30
2013,02,22,03,29,4.30
2013,02,22,03,30,4.30
2013,02,22,03,31,4.30
2013,02,22,03,32,4.30
2013,02,22,03,33,4.20
2013,02,22,03,34,4.20
2013,02,22,03,35,4.20
2013,02,22,03,36,4.20
2013,02,22,03,37,4.20
2013,02,22,03,38,4.20
2013,02,22,03,39,4.20
2013,02,22,03,40,4.20
2013,02,22,03,41,4.10
2013,02,22,03,42,4.10
2013,02,22,03,43,4.10
2013,02,22,03,44,4.10
2013,02,22,03,45,4.10
2013,02,22,03,46,4.10
2013,02,22,03,47,4.10
2013,02,22,03,48,4.10
2013,02,22,03,49,4.10
2013,02,22,03,50,4.10
2013,02,22,03,51,4.10
2013,02,22,03,53,4.10
2013,02,22,03,54,4.10
2013,02,22,03,55,4.10
2013,02,22,03,56,4.10
2013,02,22,03,57,4.10
2013,02,22,03,58,4.20
2013,02,22,03,59,4.30
2013,02,22,04,01,4.40
2013,02,22,04,02,4.50
2013,02,22,04,03,4.60
2013,02,22,04,04,4.60
2013,02,22,04,05,4.60
2013,02,22,04,06,4.70
2013,02,22,04,07,4.70
2013,02,22,04,08,4.80
2013,02,22,04,09,4.80
2013,02,22,04,10,4.80
2013,02,22,04,11,4.90
2013,02,22,04,12,4.90
2013,02,22,04,14,5.00
2013,02,22,04,15,5.00
2013,02,22,04,16,5.10
2013,02,22,04,17,5.10
2013,02,22,04,18,5.10
2013,02,22,04,19,5.10
2013,02,22,04,20,5.20
2013,02,22,04,21,5.20
2013,02,22,04,22,5.10
2013,02,22,04,23,5.20
2013,02,22,04,24,5.20
2013,02,22,04,25,5.20
2013,02,22,04,26,5.20
2013,02,22,04,27,5.10
2013,02,22,04,28,5.10
2013,02,22,04,29,5.10
2013,02,22,04,30,5.10
2013,02,22,04,31,5.10
2013,02,22,04,32,5.10
2013,02,22,04,33,5.10
2013,02,22,04,34,5.10
2013,02,22,04,35,5.10
2013,02,22,04,36,5.10
2013,02,22,04,37,5.10
2013,02,22,04,38,5.10
2013,02,22,04,39,5.10
2013,02,22,04,40,5.20
2013,02,22,04,41,5.20
2013,02,22,04,42,5.20
2013,02,22,04,43,5.20
2013,02,22,04,44,5.20
2013,02,22,04,45,5.20
2013,02,22,04,46,5.20
2013,02,22,04,47,5.20
2013,02,22,04,48,5.20
2013,02,22,04,49,5.20
2013,02,22,04,50,5.20
2013,02,22,04,51,5.20
2013,02,22,04,52,5.20
2013,02,22,04,53,5.10
2013,02,22,04,54,5.10
2013,02,22,04,55,5.10
2013,02,22,04,56,5.10
2013,02,22,04,57,5.10
2013,02,22,04,58,5.10
2013,02,22,04,59,5.10
2013,02,22,05,01,5.10
2013,02,22,05,02,5.10
2013,02,22,05,03,5.10
2013,02,22,05,04,5.10
2013,02,22,05,05,5.10
2013,02,22,05,06,5.10
2013,02,22,05,07,5.10
2013,02,22,05,08,5.10
2013,02,22,05,09,5.10
2013,02,22,05,10,5.10
2013,02,22,05,11,5.10
2013,02,22,05,12,5.10
2013,02,22,05,13,5.10
2013,02,22,05,14,5.10
2013,02,22,05,15,5.10
2013,02,22,05,16,5.10
2013,02,22,05,17,5.10
2013,02,22,05,18,5.10
2013,02,22,05,20,5.10
2013,02,22,05,21,5.10
2013,02,22,05,22,5.10
2013,02,22,05,23,5.10
2013,02,22,05,24,5.10
2013,02,22,05,25,5.10
2013,02,22,05,26,5.10
2013,02,22,05,27,5.10
2013,02,22,05,28,5.10
2013,02,22,05,29,5.10
2013,02,22,05,30,5.10
2013,02,22,05,31,5.10
2013,02,22,05,32,5.20
2013,02,22,05,33,5.20
2013,02,22,05,34,5.20
2013,02,22,05,35,5.20
2013,02,22,05,36,5.20
2013,02,22,05,37,5.30
2013,02,22,05,38,5.30
2013,02,22,05,39,5.30
2013,02,22,05,40,5.20
2013,02,22,05,41,5.20
2013,02,22,05,42,5.20
2013,02,22,05,43,5.20
2013,02,22,05,44,5.20
2013,02,22,05,45,5.20
2013,02,22,05,47,5.20
2013,02,22,05,48,5.20
2013,02,22,05,49,5.20
2013,02,22,05,50,5.20
2013,02,22,05,51,5.20
2013,02,22,05,52,5.20
2013,02,22,05,53,5.20
2013,02,22,05,54,5.20
2013,02,22,05,55,5.20
2013,02,22,05,56,5.10
2013,02,22,05,57,5.10
2013,02,22,05,58,5.10
2013,02,22,05,59,5.10
2013,02,22,06,01,5.10
2013,02,22,06,03,5.10
2013,02,22,06,04,5.10
2013,02,22,06,05,5.10
2013,02,22,06,06,5.10
2013,02,22,06,07,5.10
2013,02,22,06,08,5.10
2013,02,22,06,09,5.10
2013,02,22,06,10,5.00
2013,02,22,06,11,5.00
2013,02,22,06,12,5.00
2013,02,22,06,14,5.00
2013,02,22,06,15,5.00
2013,02,22,06,16,5.00
2013,02,22,06,17,4.90
2013,02,22,06,18,4.90
2013,02,22,06,19,4.90
2013,02,22,06,20,4.90
2013,02,22,06,21,4.90
2013,02,22,06,22,4.90
2013,02,22,06,23,4.90
2013,02,22,06,24,4.90
2013,02,22,06,25,4.90
2013,02,22,06,26,4.90
2013,02,22,06,27,4.90
2013,02,22,06,28,5.00
2013,02,22,06,30,4.90
2013,02,22,06,31,4.90
2013,02,22,06,33,5.00
2013,02,22,06,34,5.00
2013,02,22,06,35,5.10
2013,02,22,06,36,5.10
2013,02,22,06,37,5.10
2013,02,22,06,38,5.00
2013,02,22,06,39,5.00
2013,02,22,06,40,4.90
2013,02,22,06,41,4.90
2013,02,22,06,42,4.90
2013,02,22,06,43,4.90
2013,02,22,06,44,4.80
2013,02,22,06,45,4.80
2013,02,22,06,46,4.80
2013,02,22,06,47,4.80
2013,02,22,06,48,4.80
2013,02,22,06,49,4.80
2013,02,22,06,50,4.80
2013,02,22,06,51,4.80
2013,02,22,06,52,4.80
2013,02,22,06,53,4.80
2013,02,22,06,54,4.80
2013,02,22,06,55,4.80
2013,02,22,06,56,4.80
2013,02,22,06,57,4.80
2013,02,22,06,58,4.80
2013,02,22,06,59,4.80
2013,02,22,07,01,4.80
2013,02,22,07,02,4.80
2013,02,22,07,03,4.80
2013,02,22,07,04,4.80
2013,02,22,07,05,4.80
2013,02,22,07,06,4.70
2013,02,22,07,07,4.70
2013,02,22,07,08,4.70
2013,02,22,07,09,4.70
2013,02,22,07,10,4.70
2013,02,22,07,11,4.70
2013,02,22,07,12,4.70
2013,02,22,07,13,4.70
2013,02,22,07,14,4.70
2013,02,22,07,15,4.70
2013,02,22,07,16,4.70
2013,02,22,07,17,4.80
2013,02,22,07,18,4.80
2013,02,22,07,19,4.80
2013,02,22,07,20,4.80
2013,02,22,07,21,4.90
2013,02,22,07,22,4.90
2013,02,22,07,23,4.90
2013,02,22,07,24,4.90
2013,02,22,07,25,5.00
2013,02,22,07,26,5.00
2013,02,22,07,27,5.00
2013,02,22,07,28,5.00
2013,02,22,07,29,5.00
2013,02,22,07,30,5.10
2013,02,22,07,31,5.10
2013,02,22,07,32,5.10
2013,02,22,07,34,5.10
2013,02,22,07,35,5.10
2013,02,22,07,36,5.10
2013,02,22,07,37,5.10
2013,02,22,07,38,5.10
2013,02,22,07,39,5.10
2013,02,22,07,40,5.10
2013,02,22,07,41,5.10
2013,02,22,07,42,5.10
2013,02,22,07,43,5.10
2013,02,22,07,44,5.10
2013,02,22,07,45,5.10
2013,02,22,07,46,5.10
2013,02,22,07,47,5.10
2013,02,22,07,48,5.10
2013,02,22,07,49,5.20
2013,02,22,07,50,5.20
2013,02,22,07,51,5.20
2013,02,22,07,52,5.20
2013,02,22,07,53,5.20
2013,02,22,07,54,5.10
2013,02,22,07,55,5.00
2013,02,22,07,56,4.90
2013,02,22,07,57,4.80
2013,02,22,07,58,4.70
2013,02,22,07,59,4.60
2013,02,22,08,01,4.20
2013,02,22,08,02,4.10
2013,02,22,08,03,3.90
2013,02,22,08,04,3.80
2013,02,22,08,05,3.70
2013,02,22,08,06,3.60
2013,02,22,08,07,3.60
2013,02,22,08,09,3.40
2013,02,22,08,10,3.40
2013,02,22,08,11,3.30
2013,02,22,08,12,3.30
2013,02,22,08,13,3.20
2013,02,22,08,14,3.20
2013,02,22,08,15,3.10
2013,02,22,08,16,3.10
2013,02,22,08,17,3.10
2013,02,22,08,18,3.10
2013,02,22,08,19,3.00
2013,02,22,08,20,2.90
2013,02,22,08,21,2.90
2013,02,22,08,22,2.90
2013,02,22,08,23,2.80
2013,02,22,08,24,2.80
2013,02,22,08,25,2.80
2013,02,22,08,26,2.80
2013,02,22,08,27,2.70
2013,02,22,08,28,2.70
2013,02,22,08,29,2.70
2013,02,22,08,30,2.70
2013,02,22,08,31,2.70
2013,02,22,08,32,2.60
2013,02,22,08,33,2.60
2013,02,22,08,34,2.60
2013,02,22,08,35,2.60
2013,02,22,08,36,2.50
2013,02,22,08,37,2.50
2013,02,22,08,38,2.40
2013,02,22,08,39,2.40
2013,02,22,08,40,2.40
2013,02,22,08,41,2.40
2013,02,22,08,42,2.40
2013,02,22,08,43,2.30
2013,02,22,08,44,2.30
2013,02,22,08,45,2.30
2013,02,22,08,46,2.30
2013,02,22,08,47,2.30
2013,02,22,08,48,2.30
2013,02,22,08,49,2.30
2013,02,22,08,50,2.30
2013,02,22,08,51,2.30
2013,02,22,08,52,2.30
2013,02,22,08,53,2.30
2013,02,22,08,54,2.30
2013,02,22,08,55,2.30
2013,02,22,08,56,2.30
2013,02,22,08,57,2.30
2013,02,22,08,58,2.30
2013,02,22,08,59,2.30
2013,02,22,09,00,2.30
2013,02,22,09,02,2.30
2013,02,22,09,03,2.30
2013,02,22,09,04,2.30
2013,02,22,09,05,2.30
2013,02,22,09,06,2.30
2013,02,22,09,07,2.40
2013,02,22,09,08,2.40
2013,02,22,09,09,2.40
2013,02,22,09,10,2.40
2013,02,22,09,11,2.40
2013,02,22,09,12,2.40
2013,02,22,09,13,2.40
2013,02,22,09,14,2.40
2013,02,22,09,15,2.40
2013,02,22,09,16,2.40
2013,02,22,09,17,2.40
2013,02,22,09,18,2.40
2013,02,22,09,19,2.40
2013,02,22,09,20,2.40
2013,02,22,09,21,2.40
2013,02,22,09,22,2.40
2013,02,22,09,24,2.40
2013,02,22,09,25,2.40
2013,02,22,09,26,2.50
2013,02,22,09,27,2.50
2013,02,22,09,28,2.50
2013,02,22,09,29,2.50
2013,02,22,09,30,2.50
2013,02,22,09,31,2.50
2013,02,22,09,32,2.50
2013,02,22,09,33,2.50
2013,02,22,09,34,2.50
2013,02,22,09,35,2.50
2013,02,22,09,36,2.60
2013,02,22,09,37,2.60
2013,02,22,09,38,2.60
2013,02,22,09,39,2.60
2013,02,22,09,40,2.60
2013,02,22,09,41,2.60
2013,02,22,09,42,2.60
2013,02,22,09,43,2.60
2013,02,22,09,44,2.60
2013,02,22,09,45,2.60
2013,02,22,09,46,2.60
2013,02,22,09,47,2.60
2013,02,22,09,48,2.60
2013,02,22,09,49,2.60
2013,02,22,09,50,2.60
2013,02,22,09,51,2.60
2013,02,22,09,52,2.60
2013,02,22,09,53,2.60
2013,02,22,09,54,2.60
2013,02,22,09,55,2.60
2013,02,22,09,56,2.60
2013,02,22,09,57,2.60
2013,02,22,09,58,2.60
2013,02,22,09,59,2.60
2013,02,22,10,00,2.70
2013,02,22,10,02,2.70
2013,02,22,10,04,2.70
2013,02,22,10,05,2.70
2013,02,22,10,06,2.80
2013,02,22,10,07,2.80
2013,02,22,10,08,2.80
2013,02,22,10,09,2.80
2013,02,22,10,10,2.80
2013,02,22,10,11,2.90
2013,02,22,10,12,2.90
2013,02,22,10,13,2.90
2013,02,22,10,14,2.90
2013,02,22,10,15,2.90
2013,02,22,10,16,3.00
2013,02,22,10,17,3.00
2013,02,22,10,18,3.10
2013,02,22,10,19,3.10
2013,02,22,10,20,3.10
2013,02,22,10,21,3.10
2013,02,22,10,22,3.20
2013,02,22,10,23,3.20
2013,02,22,10,24,3.20
2013,02,22,10,25,3.20
2013,02,22,10,26,3.20
2013,02,22,10,27,3.20
2013,02,22,10,28,3.20
2013,02,22,10,29,3.20
2013,02,22,10,30,3.20
2013,02,22,10,31,3.30
2013,02,22,10,32,3.30
2013,02,22,10,33,3.30
2013,02,22,10,34,3.30
2013,02,22,10,35,3.30
2013,02,22,10,36,3.30
2013,02,22,10,37,3.30
2013,02,22,10,38,3.30
2013,02,22,10,39,3.30
2013,02,22,10,40,3.30
2013,02,22,10,41,3.30
2013,02,22,10,42,3.30
2013,02,22,10,43,3.30
2013,02,22,10,44,3.30
2013,02,22,10,45,3.30
2013,02,22,10,46,3.30
2013,02,22,10,47,3.30
2013,02,22,10,48,3.30
2013,02,22,10,49,3.30
2013,02,22,10,50,3.30
2013,02,22,10,51,3.30
2013,02,22,10,52,3.40
2013,02,22,10,53,3.40
2013,02,22,10,54,3.40
2013,02,22,10,55,3.40
2013,02,22,10,56,3.50
2013,02,22,10,57,3.50
2013,02,22,10,58,3.50
2013,02,22,10,59,3.60
2013,02,22,11,00,3.60
2013,02,22,11,02,3.60
2013,02,22,11,03,3.60
2013,02,22,11,04,3.60
2013,02,22,11,05,3.70
2013,02,22,11,06,3.70
2013,02,22,11,07,3.70
2013,02,22,11,08,3.70
2013,02,22,11,09,3.70
2013,02,22,11,10,3.70
2013,02,22,11,11,3.80
2013,02,22,11,12,3.80
2013,02,22,11,13,3.80
2013,02,22,11,14,3.70
2013,02,22,11,15,3.80
2013,02,22,11,16,3.80
2013,02,22,11,17,3.80
2013,02,22,11,18,3.80
2013,02,22,11,19,3.80
2013,02,22,11,20,3.80
2013,02,22,11,21,3.80
2013,02,22,11,22,3.80
2013,02,22,11,23,3.80
2013,02,22,11,24,3.80
2013,02,22,11,25,3.90
2013,02,22,11,26,3.90
2013,02,22,11,27,3.90
2013,02,22,11,28,3.90
2013,02,22,11,29,3.90
2013,02,22,11,30,3.90
2013,02,22,11,31,3.90
2013,02,22,11,32,3.90
2013,02,22,11,33,4.00
2013,02,22,11,34,4.10
2013,02,22,11,35,4.10
2013,02,22,11,36,4.20
2013,02,22,11,37,4.20
2013,02,22,11,38,4.20
2013,02,22,11,39,4.30
2013,02,22,11,40,4.30
2013,02,22,11,41,4.40
2013,02,22,11,42,4.40
2013,02,22,11,43,4.50
2013,02,22,11,44,4.60
2013,02,22,11,45,4.60
2013,02,22,11,46,4.60
2013,02,22,11,47,4.60
2013,02,22,11,48,4.60
2013,02,22,11,49,4.60
2013,02,22,11,50,4.60
2013,02,22,11,51,4.70
2013,02,22,11,52,4.70
2013,02,22,11,53,4.70
2013,02,22,11,54,4.70
2013,02,22,11,55,4.80
2013,02,22,11,56,4.80
2013,02,22,11,57,4.90
2013,02,22,11,58,4.90
2013,02,22,11,59,4.90
2013,02,22,12,01,5.10
2013,02,22,12,02,5.00
2013,02,22,12,03,5.10
2013,02,22,12,04,5.10
2013,02,22,12,06,5.10
2013,02,22,12,07,5.10
2013,02,22,12,08,5.00
2013,02,22,12,09,5.10
2013,02,22,12,10,5.10
2013,02,22,12,11,5.10
2013,02,22,12,12,5.10
2013,02,22,12,13,5.10
2013,02,22,12,14,5.10
2013,02,22,12,15,5.10
2013,02,22,12,16,5.20
2013,02,22,12,17,5.20
2013,02,22,12,18,5.30
2013,02,22,12,19,5.40
2013,02,22,12,21,5.70
2013,02,22,12,22,5.80
2013,02,22,12,23,6.10
2013,02,22,12,25,6.30
2013,02,22,12,27,6.60
2013,02,22,12,28,6.70
2013,02,22,12,29,6.70
2013,02,22,12,30,6.80
2013,02,22,12,31,6.80
2013,02,22,12,32,6.90
2013,02,22,12,33,6.90
2013,02,22,12,34,7.00
2013,02,22,12,35,7.10
2013,02,22,12,36,7.20
2013,02,22,12,37,7.30
2013,02,22,12,38,7.60
2013,02,22,12,39,7.80
2013,02,22,12,40,8.10
2013,02,22,12,41,8.30
2013,02,22,12,42,8.40
2013,02,22,12,43,8.60
2013,02,22,12,44,8.70
2013,02,22,12,45,8.80
2013,02,22,12,46,8.90
2013,02,22,12,47,8.90
2013,02,22,12,48,8.90
2013,02,22,12,49,8.90
2013,02,22,12,50,8.90
2013,02,22,12,51,8.90
2013,02,22,12,52,8.90
2013,02,22,12,53,8.90
2013,02,22,12,54,8.90
2013,02,22,12,55,8.90
2013,02,22,12,56,8.90
2013,02,22,12,57,8.80
2013,02,22,12,58,8.80
2013,02,22,12,59,8.70
2013,02,22,13,01,8.70
2013,02,22,13,02,8.70
2013,02,22,13,03,8.70
2013,02,22,13,04,8.70
2013,02,22,13,05,8.80
2013,02,22,13,06,8.80
2013,02,22,13,07,8.80
2013,02,22,13,08,8.80
2013,02,22,13,10,8.80
2013,02,22,13,11,8.90
2013,02,22,13,12,8.90
2013,02,22,13,13,8.90
2013,02,22,13,14,9.00
2013,02,22,13,15,9.00
2013,02,22,13,16,9.10
2013,02,22,13,17,9.10
2013,02,22,13,18,9.20
2013,02,22,13,19,9.20
2013,02,22,13,20,9.30
2013,02,22,13,21,9.30
2013,02,22,13,22,9.40
2013,02,22,13,23,9.40
2013,02,22,13,24,9.50
2013,02,22,13,25,9.60
2013,02,22,13,26,9.60
2013,02,22,13,27,9.60
2013,02,22,13,28,9.70
2013,02,22,13,29,9.70
2013,02,22,13,30,9.80
2013,02,22,13,31,9.80
2013,02,22,13,32,9.90
2013,02,22,13,33,9.90
2013,02,22,13,34,9.90
2013,02,22,13,35,9.90
2013,02,22,13,36,9.90
2013,02,22,13,37,9.80
2013,02,22,13,38,9.80
2013,02,22,13,39,9.80
2013,02,22,13,40,9.90
2013,02,22,13,41,9.90
2013,02,22,13,42,9.80
2013,02,22,13,43,9.80
2013,02,22,13,44,9.80
2013,02,22,13,45,9.80
2013,02,22,13,46,9.70
2013,02,22,13,47,9.70
2013,02,22,13,48,9.70
2013,02,22,13,49,9.60
2013,02,22,13,50,9.50
2013,02,22,13,51,9.40
2013,02,22,13,52,9.30
2013,02,22,13,53,9.30
2013,02,22,13,54,9.20
2013,02,22,13,55,9.20
2013,02,22,13,56,9.10
2013,02,22,13,57,9.10
2013,02,22,13,58,9.10
2013,02,22,13,59,9.10
2013,02,22,14,00,9.20
2013,02,22,14,02,9.10
2013,02,22,14,03,9.10
2013,02,22,14,04,9.10
2013,02,22,14,05,9.00
2013,02,22,14,06,8.80
2013,02,22,14,07,8.80
2013,02,22,14,08,8.70
2013,02,22,14,09,8.70
2013,02,22,14,10,8.60
2013,02,22,14,11,8.60
2013,02,22,14,12,8.50
2013,02,22,14,13,8.40
2013,02,22,14,14,8.30
2013,02,22,14,15,8.20
2013,02,22,14,16,8.10
2013,02,22,14,17,8.00
2013,02,22,14,18,7.90
2013,02,22,14,19,7.90
2013,02,22,14,20,7.80
2013,02,22,14,21,7.80
2013,02,22,14,22,7.70
2013,02,22,14,23,7.60
2013,02,22,14,24,7.60
2013,02,22,14,25,7.60
2013,02,22,14,26,7.50
2013,02,22,14,27,7.50
2013,02,22,14,29,7.40
2013,02,22,14,30,7.40
2013,02,22,14,31,7.40
2013,02,22,14,32,7.50
2013,02,22,14,33,7.50
2013,02,22,14,34,7.60
2013,02,22,14,35,7.70
2013,02,22,14,36,7.70
2013,02,22,14,37,7.80
2013,02,22,14,38,7.80
2013,02,22,14,41,8.00
2013,02,22,14,43,7.90
2013,02,22,14,44,7.80
2013,02,22,14,45,7.70
2013,02,22,14,46,7.60
2013,02,22,14,47,7.40
2013,02,22,14,48,7.30
2013,02,22,14,49,7.20
2013,02,22,14,50,7.20
2013,02,22,14,51,7.10
2013,02,22,14,52,7.00
2013,02,22,14,53,6.90
2013,02,22,14,54,6.80
2013,02,22,14,55,6.70
2013,02,22,14,56,6.60
2013,02,22,14,57,6.40
2013,02,22,14,58,6.30
2013,02,22,14,59,6.20
2013,02,22,15,00,6.10
2013,02,22,15,02,6.00
2013,02,22,15,03,5.90
2013,02,22,15,04,5.90
2013,02,22,15,05,5.90
2013,02,22,15,06,5.80
2013,02,22,15,07,5.80
2013,02,22,15,08,5.80
2013,02,22,15,09,5.70
2013,02,22,15,10,5.70
2013,02,22,15,11,5.70
2013,02,22,15,12,5.70
2013,02,22,15,13,5.70
2013,02,22,15,14,5.70
2013,02,22,15,15,5.70
2013,02,22,15,16,5.70
2013,02,22,15,17,5.70
2013,02,22,15,18,5.80
2013,02,22,15,19,5.80
2013,02,22,15,20,5.80
2013,02,22,15,21,5.80
2013,02,22,15,22,5.90
2013,02,22,15,23,5.90
2013,02,22,15,24,5.90
2013,02,22,15,25,6.00
2013,02,22,15,26,6.10
2013,02,22,15,27,6.20
2013,02,22,15,28,6.20
2013,02,22,15,29,6.30
2013,02,22,15,30,6.30
2013,02,22,15,31,6.30
2013,02,22,15,32,6.30
2013,02,22,15,33,6.30
2013,02,22,15,34,6.30
2013,02,22,15,35,6.30
2013,02,22,15,36,6.30
2013,02,22,15,37,6.30
2013,02,22,15,38,6.40
2013,02,22,15,39,6.40
2013,02,22,15,40,6.40
2013,02,22,15,41,6.40
2013,02,22,15,42,6.40
2013,02,22,15,43,6.40
2013,02,22,15,44,6.30
2013,02,22,15,45,6.30
2013,02,22,15,46,6.20
2013,02,22,15,47,6.20
2013,02,22,15,48,6.20
2013,02,22,15,49,6.20
2013,02,22,15,50,6.20
2013,02,22,15,51,6.20
2013,02,22,15,52,6.30
2013,02,22,15,53,6.30
2013,02,22,15,54,6.30
2013,02,22,15,55,6.30
2013,02,22,15,56,6.20
2013,02,22,15,57,6.20
2013,02,22,15,58,6.20
2013,02,22,15,59,6.10
2013,02,22,16,00,6.10
2013,02,22,16,02,6.00
2013,02,22,16,03,5.90
2013,02,22,16,04,5.90
2013,02,22,16,05,5.90
2013,02,22,16,06,5.90
2013,02,22,16,07,5.90
2013,02,22,16,08,5.90
2013,02,22,16,09,5.90
2013,02,22,16,10,5.80
2013,02,22,16,11,5.80
2013,02,22,16,12,5.80
2013,02,22,16,13,5.80
2013,02,22,16,14,5.80
2013,02,22,16,15,5.80
2013,02,22,16,16,5.80
2013,02,22,16,17,5.70
2013,02,22,16,18,5.70
2013,02,22,16,19,5.70
2013,02,22,16,20,5.80
2013,02,22,16,21,5.70
2013,02,22,16,22,5.70
2013,02,22,16,23,5.70
2013,02,22,16,24,5.60
2013,02,22,16,25,5.60
2013,02,22,16,26,5.60
2013,02,22,16,27,5.50
2013,02,22,16,28,5.40
2013,02,22,16,29,5.40
2013,02,22,16,30,5.30
2013,02,22,16,31,5.30
2013,02,22,16,32,5.20
2013,02,22,16,33,5.20
2013,02,22,16,34,5.10
2013,02,22,16,35,5.10
2013,02,22,16,36,5.00
2013,02,22,16,37,4.90
2013,02,22,16,38,4.90
2013,02,22,16,39,4.90
2013,02,22,16,40,4.90
2013,02,22,16,41,4.80
2013,02,22,16,42,4.80
2013,02,22,16,43,4.80
2013,02,22,16,44,4.80
2013,02,22,16,45,4.80
2013,02,22,16,46,4.80
2013,02,22,16,47,4.80
2013,02,22,16,48,4.80
2013,02,22,16,49,4.80
2013,02,22,16,50,4.80
2013,02,22,16,51,4.80
2013,02,22,16,52,4.80
2013,02,22,16,53,4.80
2013,02,22,16,54,4.80
2013,02,22,16,55,4.90
2013,02,22,16,56,4.90
2013,02,22,16,57,4.90
2013,02,22,16,58,4.90
2013,02,22,16,59,4.90
2013,02,22,17,00,4.90
2013,02,22,17,02,5.00
2013,02,22,17,03,5.00
2013,02,22,17,04,5.10
2013,02,22,17,05,5.10
2013,02,22,17,06,5.10
2013,02,22,17,07,5.10
2013,02,22,17,08,5.10
2013,02,22,17,09,5.10
2013,02,22,17,10,5.10
2013,02,22,17,11,5.10
2013,02,22,17,12,5.10
2013,02,22,17,13,5.10
2013,02,22,17,14,5.10
2013,02,22,17,15,5.10
2013,02,22,17,16,5.10
2013,02,22,17,17,5.10
2013,02,22,17,18,5.00
2013,02,22,17,19,4.90
2013,02,22,17,20,4.90
2013,02,22,17,21,4.90
2013,02,22,17,22,4.80
2013,02,22,17,23,4.80
2013,02,22,17,24,4.80
2013,02,22,17,25,4.80
2013,02,22,17,26,4.80
2013,02,22,17,27,4.80
2013,02,22,17,28,4.80
2013,02,22,17,29,4.90
2013,02,22,17,30,4.90
2013,02,22,17,31,4.90
2013,02,22,17,32,4.90
2013,02,22,17,33,4.90
2013,02,22,17,34,4.90
2013,02,22,17,35,4.90
2013,02,22,17,36,4.90
2013,02,22,17,37,4.90
2013,02,22,17,38,4.80
2013,02,22,17,39,4.80
2013,02,22,17,41,4.80
2013,02,22,17,42,4.70
2013,02,22,17,43,4.70
2013,02,22,17,44,4.60
2013,02,22,17,45,4.60
2013,02,22,17,46,4.60
2013,02,22,17,47,4.40
2013,02,22,17,48,4.40
2013,02,22,17,49,4.40
2013,02,22,17,50,4.40
2013,02,22,17,51,4.30
2013,02,22,17,52,4.30
2013,02,22,17,53,4.30
2013,02,22,17,54,4.30
2013,02,22,17,55,4.30
2013,02,22,17,56,4.30
2013,02,22,17,57,4.30
2013,02,22,17,58,4.30
2013,02,22,17,59,4.30
2013,02,22,18,00,4.30
2013,02,22,18,01,4.40
2013,02,22,18,02,4.40
2013,02,22,18,03,4.30
2013,02,22,18,04,4.30
2013,02,22,18,05,4.30
2013,02,22,18,06,4.30
2013,02,22,18,07,4.30
2013,02,22,18,08,4.30
2013,02,22,18,09,4.30
2013,02,22,18,10,4.20
2013,02,22,18,11,4.20
2013,02,22,18,12,4.20
2013,02,22,18,13,4.20
2013,02,22,18,14,4.20
2013,02,22,18,15,4.20
2013,02,22,18,16,4.20
2013,02,22,18,17,4.20
2013,02,22,18,18,4.20
2013,02,22,18,19,4.20
2013,02,22,18,20,4.30
2013,02,22,18,21,4.30
2013,02,22,18,22,4.30
2013,02,22,18,23,4.30
2013,02,22,18,24,4.30
2013,02,22,18,25,4.30
2013,02,22,18,26,4.30
2013,02,22,18,27,4.30
2013,02,22,18,28,4.30
2013,02,22,18,29,4.30
2013,02,22,18,30,4.30
2013,02,22,18,31,4.30
2013,02,22,18,32,4.30
2013,02,22,18,33,4.30
2013,02,22,18,34,4.20
2013,02,22,18,35,4.20
2013,02,22,18,36,4.20
2013,02,22,18,37,4.20
2013,02,22,18,38,4.20
2013,02,22,18,39,4.20
2013,02,22,18,40,4.20
2013,02,22,18,41,4.20
2013,02,22,18,42,4.30
2013,02,22,18,43,4.30
2013,02,22,18,44,4.30
2013,02,22,18,45,4.30
2013,02,22,18,46,4.30
2013,02,22,18,47,4.30
2013,02,22,18,48,4.30
2013,02,22,18,49,4.30
2013,02,22,18,50,4.30
2013,02,22,18,51,4.20
2013,02,22,18,52,4.30
2013,02,22,18,53,4.30
2013,02,22,18,54,4.30
2013,02,22,18,55,4.30
2013,02,22,18,56,4.30
2013,02,22,18,57,4.30
2013,02,22,18,58,4.30
2013,02,22,18,59,4.30
2013,02,22,19,00,4.30
2013,02,22,19,02,4.30
2013,02,22,19,03,4.30
2013,02,22,19,04,4.30
2013,02,22,19,05,4.30
2013,02,22,19,06,4.30
2013,02,22,19,07,4.30
2013,02,22,19,08,4.40
2013,02,22,19,09,4.40
2013,02,22,19,10,4.40
2013,02,22,19,11,4.40
2013,02,22,19,12,4.40
2013,02,22,19,13,4.40
2013,02,22,19,14,4.40
2013,02,22,19,15,4.40
2013,02,22,19,16,4.40
2013,02,22,19,17,4.40
2013,02,22,19,18,4.40
2013,02,22,19,19,4.40
2013,02,22,19,20,4.40
2013,02,22,19,21,4.40
2013,02,22,19,22,4.40
2013,02,22,19,23,4.40
2013,02,22,19,24,4.40
2013,02,22,19,25,4.40
2013,02,22,19,26,4.40
2013,02,22,19,27,4.40
2013,02,22,19,28,4.40
2013,02,22,19,29,4.40
2013,02,22,19,30,4.40
2013,02,22,19,31,4.40
2013,02,22,19,32,4.40
2013,02,22,19,33,4.40